DW4080 Weather Reports


Display with metric or nautical units.
time (UTC)temp
F
wind
direction
speed
MPH
gust
MPH
rain 1hr
in
rain 24hr
in
rain mn
in
humidity
%
barometer
mb
20260507050008 46 360 0.0 0.0 0.00 0.00 0.00 67 1012.1
20260507044506 46 360 0.0 0.0 0.00 0.00 0.00 62 1012.1
20260507043005 46 360 0.0 0.0 0.00 0.00 0.00 64 1012.2
20260507041513 46 360 0.0 0.0 0.00 0.00 0.00 64 1012.1
20260507040001 46 360 0.0 0.0 0.00 0.00 0.00 61 1012.1
20260507034501 47 360 0.0 0.0 0.00 0.00 0.00 66 1012.0
20260507033002 47 360 0.0 0.0 0.00 0.00 0.00 67 1012.1
20260507031601 47 360 0.0 0.0 0.00 0.00 0.00 65 1012.2
20260507030101 47 360 0.0 0.0 0.00 0.00 0.00 62 1012.2
20260507024625 47 360 0.0 0.0 0.00 0.00 0.00 62 1012.3
20260507023058 48 360 0.0 0.0 0.00 0.00 0.00 65 1012.3
20260507021559 48 360 0.0 0.0 0.00 0.00 0.00 64 1012.2
20260507020110 48 360 0.0 0.0 0.00 0.00 0.00 59 1012.1
20260507014606 49 360 0.0 0.0 0.00 0.00 0.00 56 1012.0
20260507013056 50 360 0.0 0.0 0.00 0.00 0.00 55 1011.9
20260507011556 50 360 0.0 0.0 0.00 0.00 0.00 48 1011.8
20260507010055 50 360 0.0 0.0 0.00 0.00 0.00 49 1011.8
20260507004555 51 360 0.0 0.0 0.00 0.00 0.00 48 1011.7
20260507003054 51 360 0.0 0.0 0.00 0.00 0.00 47 1011.8
20260507001557 51 360 0.0 4.0 0.00 0.00 0.00 45 1011.6
20260507000034 51 360 0.0 4.0 0.00 0.00 0.00 44 1011.5
20260506234600 52 360 2.0 6.0 0.00 0.00 0.00 43 1011.6
20260506233108 53 360 3.0 11.0 0.00 0.00 0.00 43 1011.6
20260506231524 53 360 3.0 6.0 0.00 0.00 0.00 41 1011.5
20260506230025 53 360 1.0 4.0 0.00 0.00 0.00 45 1011.3
20260506224540 53 360 2.0 5.0 0.00 0.00 0.00 44 1011.4
20260506223059 53 360 0.0 3.0 0.00 0.00 0.00 43 1011.3
20260506221612 53 360 2.0 5.0 0.00 0.00 0.00 43 1011.2
20260506220019 53 360 2.0 6.0 0.00 0.00 0.00 42 1011.2
20260506214533 54 360 3.0 6.0 0.00 0.00 0.00 41 1011.2
20260506213104 54 360 2.0 5.0 0.00 0.00 0.00 43 1011.0
20260506211633 54 360 1.0 5.0 0.00 0.00 0.00 42 1011.0
20260506210010 55 360 2.0 5.0 0.00 0.00 0.00 41 1010.9
20260506204531 54 360 1.0 6.0 0.00 0.00 0.00 42 1011.0
20260506203007 54 360 1.0 5.0 0.00 0.00 0.00 41 1011.1
20260506201505 54 360 4.0 9.0 0.00 0.00 0.00 42 1011.1
20260506200006 55 360 2.0 5.0 0.00 0.00 0.00 42 1011.3
20260506194504 54 360 2.0 5.0 0.00 0.00 0.00 43 1011.3
20260506193004 55 360 0.0 10.0 0.00 0.00 0.00 42 1011.4
20260506191503 55 360 4.0 8.0 0.00 0.00 0.00 43 1011.4
20260506190002 54 360 3.0 10.0 0.00 0.00 0.00 43 1011.6
20260506184501 53 360 4.0 11.0 0.00 0.00 0.00 44 1011.9
20260506181518 53 360 1.0 6.0 0.00 0.00 0.00 43 1011.4
20260506180044 54 47 0.0 8.0 0.00 0.00 0.00 42 1011.5
20260506174559 55 360 3.0 9.0 0.00 0.00 0.00 43 1011.6
20260506173109 53 360 1.0 9.0 0.00 0.00 0.00 43 1011.7
20260506171501 53 360 1.0 6.0 0.00 0.00 0.00 43 1011.9
20260506170020 53 360 3.0 8.0 0.00 0.00 0.00 46 1012.3
20260506164525 52 360 2.0 9.0 0.00 0.00 0.00 44 1012.1
20260506163035 52 360 2.0 5.0 0.00 0.00 0.00 45 1012.1
20260506161542 50 360 2.0 8.0 0.00 0.00 0.00 46 1012.1
20260506160143 50 360 4.0 9.0 0.00 0.00 0.00 45 1011.8
20260506154543 50 360 3.0 11.0 0.00 0.01 0.00 47 1012.1
20260506153040 51 44 3.0 8.0 0.00 0.01 0.00 46 1011.9
20260506151544 51 360 4.0 10.0 0.00 0.01 0.00 46 1011.8
20260506150038 51 49 3.0 11.0 0.00 0.01 0.00 45 1011.7
20260506144608 51 360 4.0 12.0 0.00 0.01 0.00 45 1011.5
20260506143110 50 360 3.0 9.0 0.00 0.01 0.00 49 1011.4
20260506141602 49 45 3.0 9.0 0.00 0.01 0.00 50 1011.1
20260506140112 48 46 3.0 8.0 0.00 0.01 0.00 53 1011.0
20260506134502 47 360 3.0 9.0 0.00 0.01 0.00 52 1010.8
20260506133021 47 360 1.0 6.0 0.00 0.01 0.00 57 1010.7
20260506131534 46 360 0.0 4.0 0.00 0.01 0.00 57 1010.8
20260506130041 46 360 1.0 8.0 0.00 0.01 0.00 59 1010.6
20260506124549 45 360 0.0 3.0 0.00 0.01 0.00 61 1010.5
20260506123101 44 360 0.0 6.0 0.00 0.01 0.00 62 1010.3
20260506121604 43 360 2.0 6.0 0.00 0.01 0.00 62 1010.1
20260506120112 42 360 0.0 0.0 0.00 0.01 0.00 67 1009.7
20260506114519 42 360 0.0 0.0 0.00 0.01 0.00 70 1009.5
20260506113027 42 360 0.0 0.0 0.00 0.01 0.00 70 1009.4
20260506111517 41 360 0.0 0.0 0.00 0.01 0.00 71 1009.3
20260506110013 41 360 0.0 0.0 0.00 0.01 0.00 71 1009.0
20260506104509 42 360 0.0 0.0 0.00 0.01 0.00 70 1008.9
20260506103010 42 360 0.0 0.0 0.00 0.01 0.00 68 1008.6
20260506101503 43 360 0.0 0.0 0.00 0.01 0.00 66 1008.4
20260506100002 44 360 0.0 0.0 0.00 0.01 0.00 67 1008.5
20260506094606 45 360 0.0 0.0 0.00 0.01 0.00 65 1008.7
20260506093057 45 360 0.0 0.0 0.00 0.01 0.00 64 1008.5
20260506091604 45 360 0.0 0.0 0.00 0.01 0.00 64 1008.0
20260506090057 45 360 0.0 0.0 0.00 0.01 0.00 64 1007.9
20260506084612 45 59 0.0 0.0 0.00 0.01 0.00 63 1007.9
20260506083052 45 360 0.0 3.0 0.00 0.01 0.00 64 1007.9
20260506081550 46 360 0.0 5.0 0.00 0.01 0.00 63 1007.6
20260506073054 46 360 0.0 4.0 0.00 0.02 0.00 63 1008.0
20260506071544 46 360 0.0 2.0 0.00 0.02 0.00 62 1007.7
20260506061554 47 360 0.0 0.0 0.00 0.02 0.00 62 1008.0